This is the latest recevied weather packets stored in our database for station/object SV1JSO-13. If no packets are shown the sender has not sent any weather packets the latest 10 day(s).
| Time | Temp. | Humidity | Pressure | Rain* | Wind** | Luminosity | Snow |
|---|---|---|---|---|---|---|---|
| 1787929800 | 31.67° C | 43% | 1007.8 hPa | 0 mm | - | 196 W/m² | - |
| 1787929500 | 31.11° C | 43% | 1007.6 hPa | 0 mm | - | 206 W/m² | - |
| 1787929205 | 31.67° C | 43% | 1007.8 hPa | 0 mm | - | 224 W/m² | - |
| 1787928900 | 31.67° C | 43% | 1007.7 hPa | 0 mm | - | 237 W/m² | - |
| 1787928600 | 31.67° C | 43% | 1007.7 hPa | 0 mm | - | 251 W/m² | - |
| 1787928300 | 31.67° C | 42% | 1007.7 hPa | 0 mm | - | 259 W/m² | - |
| 1787928000 | 31.67° C | 42% | 1007.7 hPa | 0 mm | - | 272 W/m² | - |
| 1787927700 | 31.67° C | 42% | 1007.8 hPa | 0 mm | - | 287 W/m² | - |
| 1787927400 | 32.22° C | 41% | 1007.6 hPa | 0 mm | - | 306 W/m² | - |
| 1787927100 | 32.22° C | 41% | 1007.6 hPa | 0 mm | - | 312 W/m² | - |
| 1787926800 | 32.22° C | 41% | 1007.6 hPa | 0 mm | - | 325 W/m² | - |
| 1787926500 | 32.22° C | 40% | 1007.7 hPa | 0 mm | - | 338 W/m² | - |
| 1787926200 | 32.78° C | 40% | 1007.6 hPa | 0 mm | - | 358 W/m² | - |
| 1787925900 | 32.78° C | 40% | 1007.7 hPa | 0 mm | - | 369 W/m² | - |
| 1787925600 | 32.78° C | 40% | 1007.6 hPa | 0 mm | - | 381 W/m² | - |
| 1787925300 | 32.78° C | 40% | 1007.6 hPa | 0 mm | - | 396 W/m² | - |
| 1787925000 | 32.78° C | 40% | 1007.6 hPa | 0 mm | - | 410 W/m² | - |
| 1787924700 | 32.78° C | 40% | 1007.6 hPa | 0 mm | - | 420 W/m² | - |
| 1787924400 | 33.33° C | 39% | 1007.5 hPa | 0 mm | - | 432 W/m² | - |
| 1787924100 | 33.33° C | 39% | 1007.6 hPa | 0 mm | - | 444 W/m² | - |
| 1787923800 | 33.33° C | 39% | 1007.6 hPa | 0 mm | - | 462 W/m² | - |
| 1787923500 | 32.78° C | 40% | 1007.7 hPa | 0 mm | - | 474 W/m² | - |
| 1787923200 | 33.33° C | 39% | 1007.6 hPa | 0 mm | - | 485 W/m² | - |
| 1787922900 | 33.33° C | 39% | 1007.7 hPa | 0 mm | - | 499 W/m² | - |
| 1787922600 | 33.89° C | 38% | 1007.6 hPa | 0 mm | - | 509 W/m² | - |
* Rain latest hour (hover to see other rain measurements)
** Current wind speed in m/s (hover to see current wind gust speed)